Location: Armstrong Village
(14.3346°N, 120.9854°E)
Time: 12:30:59
(UTC+00:00)

Resurs 01 Rocket - Pass Details

Date: 13 January 2026
Orbit: 628 x 635 km, 97.7° (Epoch: 17 February)

Event Time Altitude Azimuth Distance (km) Brightness Sun altitude
Rises 10:52:16 0° 154° (SSE) 2,905 4.9 -16.0°
Reaches altitude 10° 10:54:33 10° 147° (SSE) 1,998 4.0 -16.6°
Maximum altitude 10:58:38 41° 77° (ENE) 917 1.9 -17.5°
Enters shadow 11:01:35 17° 14° (NNE) 1,575 3.3 -18.2°
